Change the Weather History Date:

Tuesday, April 16, 2013

  Actual Average Record
Temperature  
Mean Temperature 61 °F 50 °F  
Max Temperature 75 °F 60 °F 84 °F (2002)
Min Temperature 47 °F 39 °F 16 °F (1904)
Degree Days  
Heating Degree Days 4 16  
Month to date heating degree days 267 295  
Since 1 July heating degree days 5471 5690  
Cooling Degree Days 0 0  
Month to date cooling degree days 0 0  
Year to date cooling degree days 0 0  
Growing Degree Days 12 (Base 50)    
Moisture  
Dew Point 53 °F    
Average Humidity 77    
Maximum Humidity 96    
Minimum Humidity 57    
Precipitation  
Precipitation 0.26 in 0.12 in 1.53 in (1998)
Month to date precipitation 2.91 1.92  
Year to date precipitation 9.16 9.82  
Snow  
Snow 0.00 in 0.10 in - ()
Month to date snowfall T 2.2  
Since 1 July snowfall 46.9 46.9  
Snow Depth 0.00 in    
Sea Level Pressure  
Sea Level Pressure 30.08 in    
Wind  
Wind Speed 12 mph (SW)    
Max Wind Speed 26 mph    
Max Gust Speed 35 mph    
Visibility 7 miles    
Events Rain , Thunderstorm    
T = Trace of Precipitation, MM = Missing Value Source: NWS Daily Summary

Daily Weather History Graph

Daily Weather History Graph

Search for Another Location

Airport or City:

Trip Planner

Search our weather history database for the weather conditions in past years. The results will help you decide how hot, cold, wet, or windy it might be!

Date:

Astronomy

Apr. 16, 2013 Rise Set
Actual Time 6:44 AM EDT 8:06 PM EDT
Civil Twilight 6:16 AM EDT 8:35 PM EDT
Nautical Twilight 5:42 AM EDT 9:09 PM EDT
Astronomical Twilight 5:05 AM EDT 9:46 PM EDT
Moon 11:01 AM EDT (4/16) 1:04 AM EDT (4/16)
Length of Visible Light 14h 19m
Length of Day
13h 21m
Waxing Crescent, 33% of the Moon is Illuminated
Apr 16
Waxing Crescent
Apr 18
First Quarter
Apr 25
Full
May 2
Last Quarter
May 9
New

Hourly Weather History & Observations

Time (EDT) Temp. Dew Point Humidity Pressure Visibility Wind Dir Wind Speed Gust Speed Precip Events Conditions
12:51 AM 57.9 °F 48.0 °F 70% 30.02 in 10.0 mi South 12.7 mph - N/A   Clear
1:51 AM 57.9 °F 48.0 °F 70% 30.01 in 10.0 mi South 12.7 mph - N/A   Clear
2:51 AM 57.0 °F 48.0 °F 72% 29.99 in 10.0 mi South 12.7 mph - N/A   Scattered Clouds
3:51 AM 57.0 °F 48.9 °F 74% 29.99 in 10.0 mi South 13.8 mph - N/A   Clear
4:51 AM 55.9 °F 48.9 °F 77% 29.99 in 10.0 mi South 15.0 mph - N/A   Clear
5:51 AM 57.0 °F 50.0 °F 77% 30.00 in 10.0 mi South 15.0 mph - N/A   Partly Cloudy
6:51 AM 57.0 °F 50.0 °F 77% 30.02 in 9.0 mi South 11.5 mph - N/A   Clear
7:51 AM 59.0 °F 51.1 °F 75% 30.05 in 8.0 mi SSW 19.6 mph 25.3 mph N/A   Scattered Clouds
8:51 AM 61.0 °F 52.0 °F 72% 30.06 in 8.0 mi SW 20.7 mph 27.6 mph N/A   Mostly Cloudy
9:51 AM 64.9 °F 54.0 °F 68% 30.07 in 8.0 mi SW 16.1 mph - N/A   Mostly Cloudy
10:51 AM 63.0 °F 54.0 °F 72% 30.09 in 8.0 mi SW 15.0 mph 21.9 mph N/A   Overcast
11:51 AM 66.0 °F 55.9 °F 70% 30.09 in 8.0 mi SW 18.4 mph 23.0 mph 0.01 in   Overcast
12:51 PM 68.0 °F 57.0 °F 68% 30.06 in 8.0 mi SSW 15.0 mph 23.0 mph N/A   Overcast
1:51 PM 71.1 °F 57.9 °F 63% 30.06 in 8.0 mi SW 16.1 mph 26.5 mph 0.00 in   Overcast
2:51 PM 72.0 °F 57.9 °F 61% 30.06 in 7.0 mi SW 17.3 mph 24.2 mph N/A   Mostly Cloudy
3:51 PM 73.0 °F 57.9 °F 59% 30.04 in 7.0 mi WSW 13.8 mph 19.6 mph N/A   Mostly Cloudy
4:40 PM 73.4 °F 59.0 °F 61% 30.06 in 8.0 mi WNW 15.0 mph - N/A   Mostly Cloudy
4:51 PM 73.0 °F 60.1 °F 64% 30.06 in 7.0 mi NW 12.7 mph - N/A   Mostly Cloudy
5:43 PM 64.4 °F 55.4 °F 73% 30.11 in 6.0 mi NNW 19.6 mph 26.5 mph 0.00 in Rain , Thunderstorm Light Thunderstorms and Rain
5:51 PM 62.1 °F 55.9 °F 80% 30.12 in 3.0 mi NNW 21.9 mph 27.6 mph 0.01 in Rain , Thunderstorm Thunderstorms and Rain
6:12 PM 59.0 °F 53.6 °F 82% 30.13 in 4.0 mi NNW 15.0 mph - 0.01 in Rain Light Rain
6:51 PM 57.0 °F 52.0 °F 83% 30.14 in 5.0 mi North 11.5 mph - 0.01 in   Haze
7:51 PM 54.0 °F 52.0 °F 93% 30.17 in 3.0 mi NW 3.5 mph - 0.05 in Rain Light Rain
8:40 PM 53.6 °F 51.8 °F 94% 30.18 in 3.0 mi NNE 3.5 mph - 0.14 in Rain Light Rain
8:51 PM 53.1 °F 51.1 °F 93% 30.18 in 3.0 mi Calm Calm - 0.16 in Rain Rain
9:51 PM 53.1 °F 51.1 °F 93% 30.18 in 4.0 mi Calm Calm - 0.02 in   Overcast
10:41 PM 51.8 °F 50.0 °F 94% 30.16 in 3.0 mi East 8.1 mph - N/A   Mostly Cloudy
10:51 PM 52.0 °F 50.0 °F 93% 30.17 in 3.0 mi East 4.6 mph - N/A   Mostly Cloudy
11:51 PM 50.0 °F 48.0 °F 93% 30.19 in 3.0 mi NNE 3.5 mph - N/A   Mostly Cloudy